WetterOnline ( http://www.wetteronline.de )

Wetter aktuell Litzendorf

Aktuelles Wetter: Bamberg (243m)

6-stündlich | Neueste Meldungen
Ortszeit Temperatur Wetter
Fr, 22.02. 13:00 10.4° C bedeckt
Fr, 22.02. 7:00 8.4° C bedeckt
Fr, 22.02. 1:00 6.0° C bedeckt
Do, 21.02. 19:00 7.6° C bewölkt
Do, 21.02. 13:00 10.5° C bewölkt
Do, 21.02. 7:00 -2.1° C wolkig
Do, 21.02. 1:00 -0.5° C leicht bewölkt
Mi, 20.02. 19:00 4.0° C bedeckt
Ortszeit Temperatur Wetter
Fr, 22.02. 16:30 9.8° C bedeckt
Fr, 22.02. 16:20 9.8° C bedeckt
Fr, 22.02. 16:10 10.2° C bedeckt
Fr, 22.02. 16:00 10.2° C bedeckt
Fr, 22.02. 15:50 10.2° C bedeckt
Fr, 22.02. 15:40 10.4° C bedeckt
Fr, 22.02. 15:30 10.6° C bedeckt
Fr, 22.02. 15:00 10.6° C bedeckt
Fr, 22.02. 14:30 10.8° C bedeckt
Fr, 22.02. 14:00 10.6° C bedeckt
Fr, 22.02. 13:30 10.8° C bedeckt
Ortszeit Relative Feuchte Sichtweite
Fr, 22.02. 13:00 68% 45 km
Fr, 22.02. 7:00 81% 12 km
Fr, 22.02. 1:00 86% 27 km
Do, 21.02. 19:00 74% 35 km
Do, 21.02. 13:00 64% 26 km
Do, 21.02. 7:00 95% 10 km
Do, 21.02. 1:00 94% 20 km
Mi, 20.02. 19:00 81% 50 km
Ortszeit Relative Feuchte Sichtweite
Fr, 22.02. 16:30 65% 55 km
Fr, 22.02. 16:20 65% -
Fr, 22.02. 16:10 64% -
Fr, 22.02. 16:00 62% >70 km
Fr, 22.02. 15:50 62% -
Fr, 22.02. 15:40 63% -
Fr, 22.02. 15:30 61% 65 km
Fr, 22.02. 15:00 61% 60 km
Fr, 22.02. 14:30 61% >70 km
Fr, 22.02. 14:00 61% 65 km
Fr, 22.02. 13:30 64% 60 km
Ortszeit Niederschlagsmenge Niederschlagsart
Fr, 22.02. 13:00 0.1 l/m2 in 6 Std. Sprühregen
Fr, 22.02. 7:00 0.1 l/m2 in 12 Std. Regen
Fr, 22.02. 1:00 0.1 l/m2 in 6 Std. Sprühregen
Do, 21.02. 19:00 0.0 l/m2 in 12 Std. -
Do, 21.02. 13:00 0.0 l/m2 in 6 Std. -
Do, 21.02. 7:00 0.0 l/m2 in 12 Std. -
Do, 21.02. 1:00 0.0 l/m2 in 6 Std. -
Mi, 20.02. 19:00 0.0 l/m2 in 12 Std. -
Ortszeit Niederschlagsmenge Niederschlagsart
Fr, 22.02. 16:30 0.0 l/m2 in 1 Std. -
Fr, 22.02. 16:20 keine Meldung -
Fr, 22.02. 16:10 keine Meldung -
Fr, 22.02. 16:00 0.0 l/m2 in 1 Std. -
Fr, 22.02. 15:50 keine Meldung -
Fr, 22.02. 15:40 keine Meldung -
Fr, 22.02. 15:30 0.0 l/m2 in 1 Std. -
Fr, 22.02. 15:00 0.0 l/m2 in 1 Std. -
Fr, 22.02. 14:30 0.0 l/m2 in 1 Std. -
Fr, 22.02. 14:00 0.0 l/m2 in 1 Std. -
Fr, 22.02. 13:30 0.0 l/m2 in 1 Std. -
Ortszeit Stärke Spitze Richtung
km/h Bft. km/h Grad Sektor
Fr, 22.02. 13:00 15 3 31 350° N
Fr, 22.02. 7:00 11 2 22 310° NW
Fr, 22.02. 1:00 4 1 7 80° O
Do, 21.02. 19:00 4 1 29 180° S
Do, 21.02. 13:00 4 1 14 290° W
Do, 21.02. 7:00 0 0 11 - -
Do, 21.02. 1:00 4 1 7 160° S
Mi, 20.02. 19:00 4 1 22 120° SO
Ortszeit Stärke Spitze Richtung
km/h Bft. km/h Grad Sektor
Fr, 22.02. 16:30 15 3 24 20° N
Fr, 22.02. 16:20 15 3 - 20° N
Fr, 22.02. 16:10 15 3 - 20° N
Fr, 22.02. 16:00 15 3 20 20° N
Fr, 22.02. 15:50 15 3 - 20° N
Fr, 22.02. 15:40 15 3 - 20° N
Fr, 22.02. 15:30 15 3 20 360° N
Fr, 22.02. 15:00 14 3 25 10° N
Fr, 22.02. 14:30 15 3 24 20° N
Fr, 22.02. 14:00 18 3 25 10° N
Fr, 22.02. 13:30 14 3 22 360° N
Ortszeit Untergrenze Bedeckung Gattung
total tief tief mittel hoch
Fr, 22.02. 13:00 720 m 8/8 8/8 - - -
Fr, 22.02. 7:00 1380 m 8/8 8/8 - - -
Fr, 22.02. 1:00 960 m 8/8 8/8 - - -
Do, 21.02. 19:00 1800 m 7/8 7/8 - - -
Do, 21.02. 13:00 810 m 7/8 7/8 - - -
Do, 21.02. 7:00 4200 m 6/8 4/8 - - -
Do, 21.02. 1:00 2400 m 3/8 3/8 - - -
Mi, 20.02. 19:00 3000 m 8/8 8/8 - - -
Ortszeit Bedeckungsgrad in Achtel und Wolkenuntergrenze
Fr, 22.02. 16:30 1(780m) 4(990m) 8(1290m)
Fr, 22.02. 16:20 1(780m) 4(990m) 8(1290m)
Fr, 22.02. 16:10 1(960m) 8(1320m)
Fr, 22.02. 16:00 2(900m) 8(1290m)
Fr, 22.02. 15:50 2(900m) 8(1290m)
Fr, 22.02. 15:40 3(900m) 4(1050m) 8(1320m)
Fr, 22.02. 15:30 5(960m) 8(1350m)
Fr, 22.02. 15:00 8(1290m)
Fr, 22.02. 14:30 8(1320m)
Fr, 22.02. 14:00 1(990m) 8(1290m)
Fr, 22.02. 13:30 3(840m) 8(1410m) 8(1350m)
Ortszeit Luftdruck NN (hPa) Tendenz (hPa in 3 Std.)
Fr, 22.02. 13:00 1035 + 1,6
Fr, 22.02. 7:00 1031 + 0,9
Fr, 22.02. 1:00 1029 + 0,2
Do, 21.02. 19:00 1029 + 0,8
Do, 21.02. 13:00 1028 - 0,5
Do, 21.02. 7:00 1029 + 0,3
Do, 21.02. 1:00 1028 + 0,4
Mi, 20.02. 19:00 1026 + 0,4
Ortszeit Luftdruck NN (hPa) Tendenz (hPa in 3 Std.)
Fr, 22.02. 16:30 1036 + 1,7
Fr, 22.02. 16:20 1036 keine Meldung
Fr, 22.02. 16:10 1036 keine Meldung
Fr, 22.02. 16:00 1036 + 1,5
Fr, 22.02. 15:50 1036 keine Meldung
Fr, 22.02. 15:40 1036 keine Meldung
Fr, 22.02. 15:30 1036 + 1,2
Fr, 22.02. 15:00 1036 + 1,3
Fr, 22.02. 14:30 1035 + 1,5
Fr, 22.02. 14:00 1035 + 1,3
Fr, 22.02. 13:30 1035 + 1,3
Ortszeit Schneehöhe (cm)
Fr, 22.02. 13:00 0
Fr, 22.02. 7:00 0
Fr, 22.02. 1:00 0
Do, 21.02. 19:00 0
Do, 21.02. 13:00 0
Do, 21.02. 7:00 0
Do, 21.02. 1:00 0
Mi, 20.02. 19:00 0
Ortszeit Schneehöhe (cm)
Fr, 22.02. 16:30 0
Fr, 22.02. 16:20 0
Fr, 22.02. 16:10 0
Fr, 22.02. 16:00 0
Fr, 22.02. 15:50 0
Fr, 22.02. 15:40 0
Fr, 22.02. 15:30 0
Fr, 22.02. 15:00 0
Fr, 22.02. 14:30 0
Fr, 22.02. 14:00 0
Fr, 22.02. 13:30 0
Link zu dieser Seite / Seite empfehlen

Das Wetter in ...